This is the latest recevied weather packets stored in our database for station/object K1RFS. If no packets are shown the sender has not sent any weather packets the latest 1 day(s).
| Time | Temp. | Humidity | Pressure | Rain* | Wind** | Luminosity | Snow |
|---|---|---|---|---|---|---|---|
| 1777989375 | 11.11° C | 57% | 995 hPa | 0 mm | 1.79 m/s, 171° | 16 W/m² | - |
| 1777989072 | 11.11° C | 56% | 994.9 hPa | 0 mm | 0.89 m/s, 196° | 12 W/m² | - |
| 1777988768 | 11.11° C | 57% | 994.9 hPa | 0 mm | 1.34 m/s, 204° | 8 W/m² | - |
| 1777988466 | 11.11° C | 56% | 995 hPa | 0 mm | 2.24 m/s, 265° | 6 W/m² | - |
| 1777988163 | 11.11° C | 57% | 994.8 hPa | 0 mm | 1.34 m/s, 180° | 5 W/m² | - |
| 1777987858 | 11.67° C | 59% | 994.6 hPa | 0 mm | 0 m/s | 5 W/m² | - |
| 1777987555 | 11.11° C | 59% | 994.5 hPa | 0 mm | 0.89 m/s, 186° | 5 W/m² | - |
| 1777987253 | 11.67° C | 56% | 994.6 hPa | 0 mm | 0.89 m/s, 192° | 6 W/m² | - |
| 1777986949 | 11.67° C | 55% | 994.4 hPa | 0 mm | 1.79 m/s, 145° | 6 W/m² | - |
| 1777986647 | 11.67° C | 55% | 994.3 hPa | 0 mm | 0.89 m/s, 197° | 5 W/m² | - |
| 1777986345 | 11.67° C | 54% | 994.1 hPa | 0 mm | 1.34 m/s, 168° | 6 W/m² | - |
| 1777986043 | 11.67° C | 55% | 994.3 hPa | 0 mm | 0.89 m/s, 187° | 6 W/m² | - |
| 1777985739 | 11.67° C | 58% | 994 hPa | 0 mm | 0.89 m/s, 195° | 5 W/m² | - |
| 1777985436 | 11.67° C | 60% | 993.8 hPa | 0 mm | 0.45 m/s, 192° | 4 W/m² | - |
| 1777985133 | 11.67° C | 59% | 994 hPa | 0 mm | 1.34 m/s, 172° | 3 W/m² | - |
| 1777984829 | 11.67° C | 60% | 993.7 hPa | 0 mm | 0.89 m/s, 189° | 2 W/m² | - |
| 1777984526 | 11.67° C | 62% | 993.7 hPa | 0 mm | 0.45 m/s, 201° | 1 W/m² | - |
| 1777984222 | 11.67° C | 65% | 993.7 hPa | 0 mm | 0.45 m/s, 181° | 1 W/m² | - |
| 1777983919 | 11.67° C | 65% | 993.7 hPa | 0 mm | 0.45 m/s, 195° | 0 W/m² | - |
| 1777983616 | 11.67° C | 65% | 993.7 hPa | 0 mm | 0.45 m/s, 181° | 0 W/m² | - |
| 1777983312 | 11.11° C | 65% | 994 hPa | 0 mm | 1.34 m/s, 180° | 0 W/m² | - |
| 1777983015 | 11.11° C | 66% | 993.7 hPa | 0 mm | 0.45 m/s, 186° | 0 W/m² | - |
| 1777982706 | 11.11° C | 66% | 993.7 hPa | 0 mm | 1.79 m/s, 190° | 0 W/m² | - |
| 1777982405 | 11.11° C | 68% | 994 hPa | 0 mm | 0.89 m/s, 187° | 0 W/m² | - |
| 1777982101 | 11.11° C | 68% | 993.8 hPa | 0 mm | 0.45 m/s, 187° | 0 W/m² | - |
* Rain latest hour (hover to see other rain measurements)
** Current wind speed in m/s (hover to see current wind gust speed)